DW7597 South Plainfield NJ US current weather conditions

sailwx.info

Wind from 071

Air temperature 11.1° C
Dewpoint 7.4° C

Last reported at 2019-Oct-16 01:01 UTC.
Time now 2019-Oct-16 02:01 UTC

Location: N 40°59' W 074°42'.
View on Google Maps.

See reports from other nearby stations

  
Tides and Currents Weather Stations Pressure Air Temp Water Temp Dewpoint Dewpoint Depression Visibility Wind Speed Wind Dir Waves Ship Positions
date/time (UTC)wind fromknots sea level pressurealtimeterstation pressurevisibilityair tempwater tempwave heightnotes
2019-Oct-16 01:01 071 11.1
2019-Oct-16 00:51 071 11.7
2019-Oct-16 00:41 071 12.2
2019-Oct-16 00:31 071 12.2
2019-Oct-16 00:21 071 12.8
2019-Oct-16 00:10 071 12.8
2019-Oct-16 00:00 063 12.8
2019-Oct-15 23:50 056 12.8
2019-Oct-15 23:40 064 12.8
2019-Oct-15 23:30 059 13.3
2019-Oct-15 23:20 060 13.3
2019-Oct-15 23:10 071 12.8
2019-Oct-15 23:00 069 12.8
2019-Oct-15 22:51 254 12.8
2019-Oct-15 22:41 254 13.3
2019-Oct-15 22:31 254 13.9
2019-Oct-15 22:22 254 13.9
2019-Oct-15 22:12 254 14.4
2019-Oct-15 22:01 254 15.0
2019-Oct-15 21:51 254 15.6
2019-Oct-15 21:41 254 15.6
2019-Oct-15 21:31 254 16.1
2019-Oct-15 21:21 254 16.1
2019-Oct-15 21:10 254 16.7
2019-Oct-15 21:01 254 16.7
2019-Oct-15 20:51 254 16.7
2019-Oct-15 20:41 254 16.7
2019-Oct-15 20:31 254 16.7
2019-Oct-15 20:20 254 16.7
2019-Oct-15 20:10 254 17.2
2019-Oct-15 20:00 254 17.2
2019-Oct-15 19:50 210 17.2
2019-Oct-15 19:40 283 17.2
2019-Oct-15 19:30 234 17.2
2019-Oct-15 19:20 301 17.2
2019-Oct-15 19:10 065 17.2
2019-Oct-15 19:00 065 17.2
2019-Oct-15 18:50 294 17.2
2019-Oct-15 18:39 279 17.2
2019-Oct-15 18:29 065 17.2
2019-Oct-15 18:19 232 17.2
2019-Oct-15 18:09 232 17.2
2019-Oct-15 17:59 080 16.7
2019-Oct-15 17:49 213 16.7
2019-Oct-15 17:39 224 16.1
2019-Oct-15 17:28 329 16.7
2019-Oct-15 17:19 217 16.7
2019-Oct-15 17:09 245 16.7
2019-Oct-15 16:59 197 16.1
2019-Oct-15 16:48 225 16.7
2019-Oct-15 16:38 217 16.7
2019-Oct-15 16:27 220 16.7
2019-Oct-15 16:17 233 16.7
2019-Oct-15 16:07 145 16.7
2019-Oct-15 15:57 235 16.7
2019-Oct-15 15:47 069 15.6
2019-Oct-15 15:37 192 15.6
2019-Oct-15 15:27 200 15.6
2019-Oct-15 15:17 205 15.6
2019-Oct-15 15:07 217 15.0
2019-Oct-15 14:57 225 15.0
2019-Oct-15 14:47 218 14.4
2019-Oct-15 14:38 236 14.4
2019-Oct-15 14:28 219 13.9
2019-Oct-15 14:18 192 13.3
2019-Oct-15 14:08 217 13.3
2019-Oct-15 13:57 215 13.3
2019-Oct-15 13:47 223 12.8
2019-Oct-15 13:37 237 12.2
2019-Oct-15 13:27 259 11.7
2019-Oct-15 13:17 182 10.6
2019-Oct-15 13:07 234 9.4
2019-Oct-15 12:57 204 7.8
2019-Oct-15 12:47 204 6.7
2019-Oct-15 12:37 204 6.1
2019-Oct-15 12:26 204 6.1
2019-Oct-15 12:16 204 5.6
2019-Oct-15 12:06 204 5.6
2019-Oct-15 11:57 204 5.0
2019-Oct-15 11:46 204 5.0
2019-Oct-15 11:36 204 5.0
2019-Oct-15 11:27 204 5.0
2019-Oct-15 11:17 204 5.0
2019-Oct-15 11:07 204 5.0
2019-Oct-15 10:58 204 5.0
2019-Oct-15 10:48 204 5.6
2019-Oct-15 10:38 204 5.6
2019-Oct-15 10:28 204 5.6
2019-Oct-15 10:18 204 5.6
2019-Oct-15 10:08 204 5.6
2019-Oct-15 09:57 204 6.1
2019-Oct-15 09:47 204 6.1
2019-Oct-15 09:37 204 6.1
2019-Oct-15 09:27 204 6.1
2019-Oct-15 09:17 204 6.7
2019-Oct-15 09:07 204 6.7
2019-Oct-15 08:56 204 6.7
2019-Oct-15 08:46 204 7.2
2019-Oct-15 08:36 204 7.2
2019-Oct-15 08:26 204 7.2
2019-Oct-15 08:16 204 7.8
2019-Oct-15 08:06 204 7.8
2019-Oct-15 07:56 204 8.3
2019-Oct-15 07:47 204 8.3
2019-Oct-15 07:36 204 8.9
2019-Oct-15 07:26 204 8.9
2019-Oct-15 07:16 204 9.4
2019-Oct-15 07:06 204 10.0
2019-Oct-15 06:56 204 10.6
2019-Oct-15 06:46 204 11.1
2019-Oct-15 06:35 204 11.1
2019-Oct-15 06:25 204 11.7
2019-Oct-15 06:15 204 11.7
2019-Oct-15 06:05 205 11.7
2019-Oct-15 05:55 202 11.7
2019-Oct-15 05:45 202 12.2
2019-Oct-15 05:35 207 11.7
2019-Oct-15 05:25 178 11.7
2019-Oct-15 05:15 178 12.2
2019-Oct-15 05:05 269 11.7
2019-Oct-15 04:55 269 11.7
2019-Oct-15 04:45 269 11.7
2019-Oct-15 04:35 269 11.7
2019-Oct-15 04:25 269 11.1
2019-Oct-15 04:15 277 10.6
2019-Oct-15 04:05 277 10.0
2019-Oct-15 03:54 277 10.0
2019-Oct-15 03:44 277 10.0
2019-Oct-15 03:34 277 10.0
2019-Oct-15 03:24 277 10.0
2019-Oct-15 03:14 277 10.0
2019-Oct-15 03:03 277 10.0
2019-Oct-15 02:54 277 10.6
2019-Oct-15 02:44 277 10.6
2019-Oct-15 02:34 277 10.6
2019-Oct-15 02:23 277 10.6
2019-Oct-15 02:13 277 11.1
2019-Oct-15 02:03 277 11.1
2019-Oct-15 01:53 277 11.7
2019-Oct-15 01:43 277 11.7
2019-Oct-15 01:33 277 12.2
2019-Oct-15 01:23 277 12.2
2019-Oct-15 01:13 277 12.8
2019-Oct-15 01:03 277 12.8
2019-Oct-15 00:53 277 12.8
2019-Oct-15 00:43 277 13.3
2019-Oct-15 00:33 277 13.9
2019-Oct-15 00:23 277 14.4
2019-Oct-15 00:13 277 14.4
2019-Oct-15 00:02 277 15.0
2019-Oct-14 23:52 277 15.6
2019-Oct-14 23:41 277 16.1
2019-Oct-14 23:31 277 16.7
2019-Oct-14 23:21 277 17.2
2019-Oct-14 23:12 277 17.8
2019-Oct-14 23:01 277 18.3
2019-Oct-14 22:51 261 18.9
2019-Oct-14 22:41 261 18.9
2019-Oct-14 22:31 258 19.4
2019-Oct-14 22:22 238 19.4
2019-Oct-14 22:12 048 20.0
2019-Oct-14 22:02 247 20.0
2019-Oct-14 21:52 269 20.0
2019-Oct-14 21:42 273 20.6
2019-Oct-14 21:32 256 20.6
2019-Oct-14 21:22 265 0 gusting 7 20.6
2019-Oct-14 21:13 275 21.1
2019-Oct-14 21:03 216 21.1
2019-Oct-14 20:53 225 21.1
2019-Oct-14 20:43 276 21.7
2019-Oct-14 20:33 277 21.7
2019-Oct-14 20:23 344 21.7
2019-Oct-14 20:13 306 21.7
2019-Oct-14 20:02 265 22.2
2019-Oct-14 19:52 019 22.2
2019-Oct-14 19:42 336 22.2
2019-Oct-14 19:32 253 22.2
2019-Oct-14 19:22 290 22.2
2019-Oct-14 19:12 252 22.2
2019-Oct-14 19:02 245 22.2
2019-Oct-14 18:52 280 0 22.2
2019-Oct-14 18:43 261 22.2
2019-Oct-14 18:33 253 0 gusting 6 22.2
2019-Oct-14 18:23 255 0 gusting 5 21.7
2019-Oct-14 18:12 244 0 gusting 4 22.2
2019-Oct-14 18:02 248 22.2
2019-Oct-14 17:51 009 21.7
2019-Oct-14 17:41 239 0 gusting 4 21.7
2019-Oct-14 17:31 271 0 gusting 3 21.7
2019-Oct-14 17:21 349 21.7
2019-Oct-14 17:11 067 21.7
2019-Oct-14 17:01 328 21.1
2019-Oct-14 16:51 220 21.1
2019-Oct-14 16:41 323 21.7
2019-Oct-14 16:31 315 20.6
2019-Oct-14 16:20 005 20.0
2019-Oct-14 16:10 235 20.0
2019-Oct-14 16:01 315 20.6
2019-Oct-14 15:50 298 20.0
2019-Oct-14 15:40 271 19.4
2019-Oct-14 15:30 227 19.4
2019-Oct-14 15:21 339 18.9
2019-Oct-14 15:10 325 18.3
2019-Oct-14 15:00 329 18.3
2019-Oct-14 14:50 345 18.3
2019-Oct-14 14:39 241 17.8
2019-Oct-14 14:29 332 17.2
2019-Oct-14 14:19 332 16.7
2019-Oct-14 14:09 252 16.1
2019-Oct-14 13:59 325 15.6
2019-Oct-14 13:49 063 15.0
2019-Oct-14 13:40 063 15.0
2019-Oct-14 13:30 063 15.0
2019-Oct-14 13:19 063 14.4
2019-Oct-14 13:09 063 14.4
2019-Oct-14 12:59 063 14.4
2019-Oct-14 12:49 063 13.9
2019-Oct-14 12:39 063 13.9
2019-Oct-14 12:29 063 13.9
2019-Oct-14 12:19 063 13.9
2019-Oct-14 12:09 063 13.9
2019-Oct-14 11:59 063 13.3
2019-Oct-14 11:49 063 13.3
2019-Oct-14 11:40 063 13.3
2019-Oct-14 11:30 063 13.3
2019-Oct-14 11:19 063 13.3
2019-Oct-14 11:10 063 13.3
2019-Oct-14 11:00 063 13.3
2019-Oct-14 10:50 063 13.3
2019-Oct-14 10:40 063 13.3
2019-Oct-14 10:29 063 13.3
2019-Oct-14 10:19 063 13.3
2019-Oct-14 10:10 063 12.8
2019-Oct-14 10:00 063 12.8
2019-Oct-14 09:50 063 12.8
2019-Oct-14 09:40 063 12.8
2019-Oct-14 09:30 063 12.8
2019-Oct-14 09:20 063 12.2
2019-Oct-14 09:10 063 12.2
2019-Oct-14 09:00 063 12.8
2019-Oct-14 08:50 063 12.8
2019-Oct-14 08:39 063 13.3
2019-Oct-14 08:29 063 13.9
2019-Oct-14 08:19 063 13.9
2019-Oct-14 08:09 063 13.9
2019-Oct-14 07:59 063 14.4
2019-Oct-14 07:49 063 14.4
2019-Oct-14 07:38 063 14.4
2019-Oct-14 07:29 063 14.4
2019-Oct-14 07:19 063 14.4
2019-Oct-14 07:09 063 14.4
2019-Oct-14 06:58 063 14.4
2019-Oct-14 06:49 063 14.4
2019-Oct-14 06:38 063 14.4
2019-Oct-14 06:29 063 14.4
2019-Oct-14 06:19 063 14.4
2019-Oct-14 06:09 063 14.4
2019-Oct-14 05:59 063 14.4
2019-Oct-14 05:49 063 14.4
2019-Oct-14 05:38 063 14.4
2019-Oct-14 05:28 063 14.4
2019-Oct-14 05:19 063 14.4
2019-Oct-14 05:09 063 14.4
2019-Oct-14 04:59 063 14.4
2019-Oct-14 04:49 063 14.4
2019-Oct-14 04:38 063 14.4
2019-Oct-14 04:29 063 14.4
2019-Oct-14 04:18 063 14.4
2019-Oct-14 04:08 063 14.4
2019-Oct-14 03:58 063 14.4
2019-Oct-14 03:48 063 14.4
2019-Oct-14 03:38 063 14.4
2019-Oct-14 03:28 063 14.4
2019-Oct-14 03:18 063 14.4
2019-Oct-14 03:08 063 14.4
2019-Oct-14 02:58 063 14.4
2019-Oct-14 02:48 063 14.4
2019-Oct-14 02:38 063 15.0
2019-Oct-14 02:28 063 15.0
2019-Oct-14 02:18 063 15.0
2019-Oct-14 02:08 063 15.0